Regional Weather Roundup
Issued by NWS

Home | Current Version | Previous Version | Text Only | Print | Product List | Glossary On
Versions: 1 2 3 4 5 6 7 8 9 10 11 12 13 14 15 16 17 18 19 20 21 22 23 24 25 26 27 28 29 30 31 32 33 34 35 36 37 38 39 40 41 42 43 44 45 46 47 48 49 50
000
ASUS46 KSEW 010310
RWRWA

WASHINGTON REGIONAL WEATHER ROUNDUP
NATIONAL WEATHER SERVICE SEATTLE WA
700 PM PST SAT FEB 28 2015

NOTE:"FAIR" INDICATES FEW OR NO CLOUDS BELOW 12,000 FEET WITH NO
SIGNIFICANT WEATHER AND/OR OBSTRUCTIONS TO VISIBILITY.

WAZ505-507>509-010400-
SEATTLE, TACOMA, EVERETT, AND VICINITY

CITY           SKY/WX    TMP DP  RH WIND       PRES   REMARKS
EVERETT        CLEAR     43  24  47 N5        30.21R
BOEING FIELD   CLEAR     50  23  34 CALM      30.20R
RENTON         CLEAR     48  31  51 N5        30.20R
SEATAC AIRPORT PTCLDY    47  25  42 N8        30.20R
JBLM-MCCHORD   CLEAR     41  27  56 S1        30.20R
PUYALLUP       FAIR      39  32  75 CALM      30.19R
BREMERTON      CLEAR     39  25  56 NW3       30.23R
JBLM-FT LEWIS  CLEAR     43  31  62 CALM      30.19R
TACOMA NARROWS CLEAR     47  24  40 N5        30.21R
$$

WAZ001-503-506-510-514-515-010400-
NORTH INTERIOR

CITY           SKY/WX    TMP DP  RH WIND       PRES   REMARKS
BELLINGHAM     CLEAR     44  23  43 NW5       30.21R
FRIDAY HARBOR  CLEAR     38  25  59 NW3       30.22R
EASTSOUND      CLEAR     39  32  75 CALM      30.20S
PORT ANGELES   CLEAR     37  29  72 CALM      30.22R
NAS WHIDBEY    PTCLDY    44  29  55 NW3       30.22R
ARLINGTON      CLEAR     45  28  53 CALM      30.22R
BURLINGTON     CLEAR     43  32  65 NW6       30.21S
$$

WAZ020-022-039-040-504-511-512-010400-
SOUTHWEST INTERIOR

CITY           SKY/WX    TMP DP  RH WIND       PRES   REMARKS
SHELTON        CLEAR     40  26  57 CALM      30.18R
OLYMPIA        CLEAR     40  28  62 N3        30.20R
CHEHALIS       FAIR      45  32  61 N5        30.19R
KELSO          CLEAR     46  34  61 CALM      30.20R
VANCOUVER      CLEAR     52  19  27 E8        30.17R
SCAPPOOSE, OR  CLEAR     44  35  70 W3        30.17R
PORTLAND, OR   PTCLDY    52  23  32 E15       30.17R
$$

WAZ021-516-517-010400-
WASHINGTON COAST

CITY           SKY/WX    TMP DP  RH WIND       PRES   REMARKS
FORKS          CLEAR     45  22  40 N7        30.19R
HOQUIAM        CLEAR     48  32  53 CALM      30.19R
ASTORIA, OR    CLEAR     47  39  74 NW8       30.18R
$$

WAZ019-023-024-040-518-519-010400-
CASCADE MOUNTAINS AND COLUMBIA GORGE

CITY           SKY/WX    TMP DP  RH WIND       PRES   REMARKS
TROUTDALE, OR  CLEAR     49  23  36 E5        30.17R
THE DALLES, OR CLEAR     42  23  46 CALM      30.20R
$$

WAZ026-027-041>044-520-521-010400-
EAST SLOPES

CITY           SKY/WX    TMP DP  RH WIND       PRES   REMARKS
OMAK           CLEAR     36  14  40 NW8       30.18R
WENATCHEE      CLEAR     42  20  41 N3        30.17R
ELLENSBURG       N/A     37  18  46 NW3       30.16R
YAKIMA         CLEAR     38  18  44 CALM      30.18R
$$

WAZ028-034-035-010400-
COLUMBIA BASIN

CITY           SKY/WX    TMP DP  RH WIND       PRES   REMARKS
EPHRATA        CLEAR     39  16  39 N3        30.16R
MOSES LAKE     CLEAR     42  18  37 CALM      30.17R
PASCO          CLEAR     32  16  51 N7        30.20R
HERMISTON, OR  CLEAR     40  12  32 NE3       30.18R
$$

WAZ036>038-010400-
NORTHEAST WASHINGTON

CITY           SKY/WX    TMP DP  RH WIND       PRES   REMARKS
SPOKANE GEIGER CLEAR     36   3  25 N3        30.14R
SPOKANE FELTS  CLEAR     33  12  41 N3        30.16R
FAIRCHILD AFB  CLEAR     36   0  21 NE7       30.14R
COEURDALENE,ID CLEAR     30   9  40 NE5       30.14R
DEER PARK      CLEAR     25  10  53 CALM      30.16R
$$

WAZ029>033-010400-
SOUTHEAST WASHINGTON

CITY           SKY/WX    TMP DP  RH WIND       PRES   REMARKS
PULLMAN        CLEAR     33  16  49 N9        30.12R
LEWISTON, ID   CLEAR     39  19  44 W8        30.12R
WALLA WALLA    CLEAR     34  20  56 NE12      30.15R WCI  25
PENDLETON, OR  CLEAR     35  16  45 NW7       30.15R
$$


USA.gov is the U.S. government's official web portal to all federal, state and local government web resources and services.